Skip Page Navigation
NASA JPL Caltech
NASA Logo - Jet Propulsion Laboratory + View the NASA Portal
+ Near-Earth Object (NEO) Program
Search JPL
JPL Home Earth Solar System Stars & Galaxies Technology
JPL Solar System Dynamics
BODIES ORBITS EPHEMERIDES TOOLS PHYSICAL DATA DISCOVERY FAQ SITE MAP
JPL Small-Body Database Browser
Search: [ help ]  
24668 (1988 TV)
Classification: Main-belt Asteroid          SPK-ID: 2024668
Ephemeris | Orbit Diagram | Orbital Elements | Physical Parameters | Discovery Circumstances ]

[ show orbit diagram ]
Orbital Elements at Epoch 2456400.5 (2013-Apr-18.0) TDB
Reference: MPO234960 (heliocentric ecliptic J2000)
 Element Value Uncertainty (1-sigma)   Units 
e 0.1725400 n/a  
a 2.3173169 n/a AU
q 1.9174870 n/a AU
i 5.51701 n/a deg
node 209.33086 n/a deg
peri 177.49420 n/a deg
M 336.32833 n/a deg
tp 2456485.2233223
(2013-Jul-11.72332230)
n/a JED
period 1288.4767338
3.53
n/a
n/a
d
yr
n 0.27939969 n/a deg/d
Q 2.7171468 n/a AU
  Orbit Determination Parameters
   # obs. used (total)      571  
   first obs. used      1988-??-??  
   last obs. used      2012-07-19  
   # oppositions      12  
   planetary ephem.      DE403  
   condition code      0  
   fit RMS      0.58  
   data source      MPC:mpn  
   producer      MPCLINUX  

Additional Information
 T_jup = 3.554 

Ephemeris | Orbit Diagram | Orbital Elements | Physical Parameters | Discovery Circumstances ]

Physical Parameter Table
Parameter Symbol Value Units Sigma Reference Notes
absolute magnitude H 15.0 mag n/a PDS3 (MPO 12368)  

24668 (1988 TV)          Discovered 1988-Oct-13 by Ueda, S., Kaneda, H. at Kushiro (399)
Reference: 20010606/Numbers.arcLast Updated: 2004-04-19

Alternate Designations
 1988 TV = 1981 UB17 = 2000 AP111 
Ephemeris | Orbit Diagram | Orbital Elements | Physical Parameters | Discovery Circumstances ]
ABOUT SSD CREDITS/AWARDS PRIVACY/COPYRIGHT GLOSSARY LINKS
FirstGov 2013-May-24 05:50 UT
(server date/time)  
NASA Home Page
Site Manager:   Donald K. Yeomans
Webmaster  Alan B. Chamberlin